Location: Recife
(8.0585°S, 34.8848°W)
Time: 12:35:39
(UTC-03:00)

Transit 4A - Pass Details

Date: 19 April 2026
Orbit: 861 x 980 km, 66.8° (Epoch: 12 May)

Event Time Altitude Azimuth Distance (km) Brightness Sun altitude
Rises 12:14:34 0° 221° (SW) 3,445 10.8 66.1°
Reaches altitude 10° 12:17:24 10° 233° (SW) 2,512 10.3 65.7°
Maximum altitude 12:22:08 26° 288° (WNW) 1,642 10.1 65.0°
Drops below altitude 10° 12:26:57 10° 344° (NNW) 2,545 10.7 64.2°
Sets 12:29:52 0° 356° (N) 3,500 11.2 63.7°
